Location: Newark
(25.6108°S, 54.5803°W)
Time: 16:12:24
(UTC+00:00)

Courier 1B Rocket - Pass Details

Date: 30 October 2020
Orbit: 920 x 1202 km, 28.2° (Epoch: 22 November)

Event Time Altitude Azimuth Distance (km) Brightness Sun altitude
Rises 05:36:50 0° 337° (NNW) 4,077 - -38.6°
Reaches altitude 10° 05:41:09 10° 358° (N) 3,097 - -37.9°
Maximum altitude 05:45:19 15° 31° (NNE) 2,678 - -37.3°
Exits shadow 05:47:25 14° 50° (NE) 2,769 7.4 -36.9°
Drops below altitude 10° 05:49:23 10° 65° (ENE) 3,028 7.7 -36.6°
Sets 05:53:29 0° 86° (E) 3,938 8.7 -35.9°
